Zurück zum Katalog

STARLINK-5111

AktivKommunikationVLEO
NORAD 56146·PAYLOAD·🇺🇸 United States

Gestartet Mar 29, 2023 von Cape Canaveral Space Force Station

Loading…

Nächste Überflüge (nächste 24 Stunden)

TLE

AktuellSource: CelesTrak SupGP

Epoche: Sep 14, 2026, 21:38 UTC

1 56146C 23046BF  26257.90187500 -.00025550  00000+0 -92549-3 0  2576
2 56146  42.9994 158.4394 0001174 237.4505 257.9029 15.27588682    11

Verfolge STARLINK-5111 in Echtzeit mit AllMySat

Download on the App Store